Cando, ND

3:25 PM CST on December 07, 2016 (GMT -0600)
Cando

Weather History for K9D7 - September, 2012

Change the Weather History Date:

Wednesday, September 12, 2012

  Actual Average (KDVL) Record (KDVL)
Temperature  
Mean Temperature 52 °F -  
Max Temperature 66 °F 69 °F 93 °F (1969)
Min Temperature 37 °F 48 °F 33 °F (1975)
Degree Days  
Heating Degree Days 14    
Growing Degree Days 2 (Base 50)    
Moisture  
Dew Point 26 °F    
Average Humidity 41    
Maximum Humidity 70    
Minimum Humidity 15    
Precipitation  
Precipitation 0.00 in - - ()
Sea Level Pressure  
Sea Level Pressure 30.08 in    
Wind  
Wind Speed 15 mph (West)    
Max Wind Speed 37 mph    
Max Gust Speed 50 mph    
Visibility 10 miles    
Events      
Averages and records for this station are not official NWS values.
T = Trace of Precipitation, MM = Missing Value Source: NWS Daily Summary

Daily Weather History Graph

Daily Weather History Graph

Search for Another Location

Airport or City:

Trip Planner

Search our weather history database for the weather conditions in past years. The results will help you decide how hot, cold, wet, or windy it might be!

Date:

Astronomy

Sep. 12, 2012 Rise Set
Actual Time 7:10 AM CDT 7:54 PM CDT
Civil Twilight 6:38 AM CDT 8:26 PM CDT
Nautical Twilight 6:00 AM CDT 9:03 PM CDT
Astronomical Twilight 5:21 AM CDT 9:43 PM CDT
Moon 3:14 AM CDT (9/12) 5:54 PM CDT (9/12)
Length of Visible Light 13h 47m
Length of Day
12h 44m
Waning Crescent, 13% of the Moon is Illuminated
Sep 12
Waning Crescent
Sep 15
New
Sep 22
First Quarter
Sep 29
Full
Oct 8
Last Quarter

Hourly Weather History & Observations

Time (CDT) Temp. Windchill Dew Point Humidity Pressure Visibility Wind Dir Wind Speed Gust Speed Precip Events Conditions
12:15 AM 41.0 °F 35.2 °F 32.0 °F 70% 29.96 in 10.0 mi West 9.2 mph - N/A   Mostly Cloudy
12:35 AM 41.0 °F 35.2 °F 32.0 °F 70% 29.96 in 10.0 mi West 9.2 mph - N/A   Mostly Cloudy
12:55 AM 42.8 °F 37.5 °F 32.0 °F 66% 29.97 in 10.0 mi West 9.2 mph - N/A   Partly Cloudy
1:15 AM 46.4 °F 41.1 °F 32.0 °F 57% 29.97 in 10.0 mi West 11.5 mph - N/A   Partly Cloudy
1:35 AM 46.4 °F 41.5 °F 30.2 °F 53% 29.98 in 10.0 mi West 10.4 mph - N/A   Partly Cloudy
1:55 AM 46.4 °F 41.5 °F 30.2 °F 53% 29.98 in 10.0 mi West 10.4 mph - N/A   Clear
2:15 AM 44.6 °F 39.2 °F 30.2 °F 57% 29.99 in 10.0 mi West 10.4 mph - N/A   Clear
2:35 AM 39.2 °F 33.6 °F 30.2 °F 70% 29.99 in 10.0 mi WSW 8.1 mph - N/A   Clear
2:55 AM 41.0 °F 35.2 °F 30.2 °F 65% 29.99 in 10.0 mi WSW 9.2 mph - N/A   Clear
3:15 AM 41.0 °F 34.3 °F 30.2 °F 65% 29.99 in 10.0 mi WSW 11.5 mph - N/A   Clear
3:35 AM 41.0 °F 34.7 °F 30.2 °F 65% 29.99 in 10.0 mi WSW 10.4 mph - N/A   Clear
3:55 AM 41.0 °F 33.9 °F 30.2 °F 65% 29.99 in 10.0 mi WSW 12.7 mph - N/A   Clear
4:15 AM 42.8 °F 36.2 °F 30.2 °F 61% 29.99 in 10.0 mi WSW 12.7 mph - N/A   Clear
4:35 AM 42.8 °F 36.6 °F 30.2 °F 61% 30.00 in 10.0 mi WSW 11.5 mph - N/A   Clear
4:55 AM 42.8 °F 36.6 °F 30.2 °F 61% 30.00 in 10.0 mi West 11.5 mph - N/A   Clear
5:15 AM 44.6 °F 38.4 °F 30.2 °F 57% 30.00 in 10.0 mi West 12.7 mph - N/A   Clear
5:35 AM 46.4 °F 40.7 °F 30.2 °F 53% 30.00 in 10.0 mi WSW 12.7 mph - N/A   Clear
5:55 AM 46.4 °F 41.5 °F 28.4 °F 50% 30.01 in 10.0 mi West 10.4 mph - N/A   Clear
6:15 AM 44.6 °F 39.7 °F 30.2 °F 57% 30.02 in 10.0 mi WSW 9.2 mph - N/A   Clear
6:35 AM 41.0 °F 34.3 °F 30.2 °F 65% 30.02 in 10.0 mi WSW 11.5 mph - N/A   Clear
6:55 AM 42.8 °F 37.0 °F 30.2 °F 61% 30.03 in 10.0 mi WSW 10.4 mph - N/A   Clear
7:15 AM 42.8 °F 37.0 °F 30.2 °F 61% 30.04 in 10.0 mi West 10.4 mph - N/A   Clear
7:55 AM 44.6 °F 38.8 °F 30.2 °F 57% 30.05 in 10.0 mi WSW 11.5 mph - N/A   Clear
8:15 AM 46.4 °F 40.7 °F 30.2 °F 53% 30.05 in 10.0 mi WSW 12.7 mph - N/A   Clear
8:35 AM 48.2 °F - 32.0 °F 54% 30.06 in 10.0 mi WSW 16.1 mph - N/A   Clear
8:55 AM 50.0 °F - 32.0 °F 50% 30.06 in 10.0 mi West 16.1 mph - N/A   Clear
9:15 AM 53.6 °F - 32.0 °F 44% 30.06 in 10.0 mi West 19.6 mph 24.2 mph N/A   Clear
9:35 AM 55.4 °F - 30.2 °F 38% 30.07 in 10.0 mi West 18.4 mph 28.8 mph N/A   Clear
9:55 AM 55.4 °F - 28.4 °F 36% 30.07 in 10.0 mi WNW 25.3 mph 31.1 mph N/A   Clear
10:15 AM 57.2 °F - 30.2 °F 36% 30.07 in 10.0 mi West 25.3 mph 31.1 mph N/A   Clear
10:35 AM 59.0 °F - 28.4 °F 31% 30.08 in 10.0 mi West 25.3 mph 35.7 mph N/A   Clear
10:55 AM 59.0 °F - 28.4 °F 31% 30.08 in 10.0 mi West 31.1 mph 41.4 mph N/A   Clear
11:15 AM 60.8 °F - 26.6 °F 27% 30.08 in 10.0 mi WNW 28.8 mph 44.9 mph N/A   Clear
11:35 AM 62.6 °F - 26.6 °F 26% 30.08 in 10.0 mi WNW 27.6 mph 39.1 mph N/A   Clear
11:55 AM 62.6 °F - 26.6 °F 26% 30.08 in 10.0 mi WNW 33.4 mph 42.6 mph N/A   Clear
12:15 PM 64.4 °F - 23.0 °F 21% 30.08 in 10.0 mi West 32.2 mph 40.3 mph N/A   Clear
12:35 PM 64.4 °F - 21.2 °F 19% 30.08 in 10.0 mi West 33.4 mph 43.7 mph N/A   Clear
12:55 PM 64.4 °F - 21.2 °F 19% 30.08 in 10.0 mi West 33.4 mph 44.9 mph N/A   Clear
1:15 PM 64.4 °F - 19.4 °F 18% 30.08 in 10.0 mi West 36.8 mph 43.7 mph N/A   Clear
1:35 PM 66.2 °F - 21.2 °F 18% 30.08 in 10.0 mi WNW 29.9 mph 38.0 mph N/A   Clear
1:55 PM 66.2 °F - 19.4 °F 17% 30.09 in 10.0 mi WNW 34.5 mph 49.5 mph N/A   Clear
2:15 PM 66.2 °F - 17.6 °F 15% 30.09 in 10.0 mi West 36.8 mph 48.3 mph N/A   Clear
2:35 PM 66.2 °F - 17.6 °F 15% 30.09 in 10.0 mi WNW 31.1 mph 41.4 mph N/A   Clear
2:55 PM 66.2 °F - 17.6 °F 15% 30.09 in 10.0 mi WNW 29.9 mph 44.9 mph N/A   Clear
3:15 PM 66.2 °F - 19.4 °F 17% 30.10 in 10.0 mi WNW 24.2 mph 41.4 mph N/A   Clear
3:35 PM 66.2 °F - 19.4 °F 17% 30.10 in 10.0 mi WNW 35.7 mph 46.0 mph N/A   Clear
3:55 PM 66.2 °F - 21.2 °F 18% 30.11 in 10.0 mi WNW 27.6 mph 41.4 mph N/A   Clear
4:15 PM 66.2 °F - 21.2 °F 18% 30.11 in 10.0 mi WNW 32.2 mph 41.4 mph N/A   Clear
4:55 PM 64.4 °F - 21.2 °F 19% 30.12 in 10.0 mi WNW 27.6 mph 38.0 mph N/A   Clear
5:15 PM 64.4 °F - 23.0 °F 21% 30.12 in 10.0 mi WNW 25.3 mph 36.8 mph N/A   Clear
5:35 PM 64.4 °F - 21.2 °F 19% 30.13 in 10.0 mi WNW 27.6 mph 35.7 mph N/A   Clear
5:55 PM 64.4 °F - 21.2 °F 19% 30.13 in 10.0 mi WNW 24.2 mph 33.4 mph N/A   Clear
6:15 PM 64.4 °F - 21.2 °F 19% 30.14 in 10.0 mi NW 23.0 mph 28.8 mph N/A   Clear
6:35 PM 62.6 °F - 21.2 °F 20% 30.15 in 10.0 mi NW 21.9 mph 31.1 mph N/A   Clear
6:55 PM 62.6 °F - 23.0 °F 22% 30.16 in 10.0 mi NW 15.0 mph 23.0 mph N/A   Clear
7:35 PM 59.0 °F - 23.0 °F 25% 30.17 in 10.0 mi WNW 13.8 mph 21.9 mph N/A   Clear
7:55 PM 59.0 °F - 23.0 °F 25% 30.18 in 10.0 mi WNW 13.8 mph - N/A   Clear
8:15 PM 55.4 °F - 24.8 °F 31% 30.18 in 10.0 mi WNW 11.5 mph - N/A   Clear
8:35 PM 53.6 °F - 26.6 °F 35% 30.19 in 10.0 mi WNW 9.2 mph - N/A   Clear
8:55 PM 53.6 °F - 24.8 °F 33% 30.19 in 10.0 mi WNW 9.2 mph - N/A   Clear
9:15 PM 50.0 °F - 26.6 °F 40% 30.20 in 10.0 mi WNW 9.2 mph - N/A   Clear
9:35 PM 48.2 °F - 26.6 °F 43% 30.20 in 10.0 mi West 6.9 mph - N/A   Clear
9:55 PM 44.6 °F 40.7 °F 26.6 °F 49% 30.21 in 10.0 mi West 6.9 mph - N/A   Clear
10:15 PM 42.8 °F 38.0 °F 24.8 °F 49% 30.21 in 10.0 mi West 8.1 mph - N/A   Clear
10:35 PM 41.0 °F 35.8 °F 26.6 °F 57% 30.22 in 10.0 mi West 8.1 mph - N/A   Clear
10:55 PM 39.2 °F 34.2 °F 26.6 °F 61% 30.22 in 10.0 mi West 6.9 mph - N/A   Clear
11:15 PM 39.2 °F 34.2 °F 28.4 °F 65% 30.23 in 10.0 mi West 6.9 mph - N/A   Clear
11:35 PM 37.4 °F 32.1 °F 24.8 °F 60% 30.23 in 10.0 mi West 6.9 mph - N/A   Clear
11:55 PM 37.4 °F 30.8 °F 26.6 °F 65% 30.23 in 10.0 mi West 9.2 mph - N/A   Clear